[Iaude] MPEC X63: 2014 OC394 [a=43.57,e=0.05,i=2.5,H=6.7]

mpec at mpcdb1.cfa.harvard.edu mpec at mpcdb1.cfa.harvard.edu
Sun Dec 9 20:57:16 EST 2018


M.P.E.C. 2018-X63                                Issued 2018 Dec. 10, 01:54 UT
 
     The Minor Planet Electronic Circulars contain information on unusual
         minor planets and routine data on comets.  They are published
    on behalf of Division F of the International Astronomical Union by the
          Minor Planet Center, Smithsonian Astrophysical Observatory,
                          Cambridge, MA 02138, U.S.A.

             Prepared using the Tamkin Foundation Computer Network

                              MPC at CFA.HARVARD.EDU
            URL https://www.minorplanetcenter.net/    ISSN 1523-6714


                                  2014 OC394
 
Additional Observations:
     K14Od4C KC2010 08 31.48463 23 19 00.393-07 01 21.70         23.0 GVEX063F51
     K14Od4C  C2010 09 15.44714 23 17 53.795-07 08 27.87         22.2 GVEX063F51
     K14Od4C  C2010 09 15.45710 23 17 53.740-07 08 28.40         23.1 GVEX063F51
     K14Od4C  C2010 09 15.47714 23 17 53.669-07 08 28.87         22.8 GVEX063F51
     K14Od4C  C2011 09 21.36580 23 22 38.785-06 39 22.64         22.8 GVEX063F51
     K14Od4C  C2011 09 21.37987 23 22 38.725-06 39 22.79         22.5 GVEX063F51
     K14Od4C  C2011 09 21.39390 23 22 38.662-06 39 23.32         22.4 GVEX063F51
     K14Od4C  C2011 09 21.40796 23 22 38.601-06 39 24.05         21.8 GVEX063F51
     K14Od4C  C2015 09 09.41690 23 44 08.392-04 24 44.23         22.0 GVEX063F51
     K14Od4C  C2015 09 09.42905 23 44 08.326-04 24 44.71         22.6 GVEX063F51
     K14Od4C  C2015 09 09.44122 23 44 08.267-04 24 45.07         22.4 GVEX063F51
     K14Od4C  C2015 09 09.45342 23 44 08.224-04 24 45.49         22.8 GVEX063F51
     K14Od4C  C2015 09 10.39285 23 44 04.083-04 25 12.92         23.1 GVEX063F51
     K14Od4C  C2015 09 12.39454 23 43 55.218-04 26 11.14         22.5 GVEX063F51
     K14Od4C  C2015 09 12.40629 23 43 55.166-04 26 11.33         22.5 GVEX063F51
     K14Od4C  C2015 09 12.41804 23 43 55.111-04 26 11.90         22.5 GVEX063F51
     K14Od4C  C2015 09 12.42981 23 43 55.061-04 26 12.19         22.4 GVEX063F51
     K14Od4C KC2015 11 02.28409 23 40 31.105-04 47 04.84         22.4 GVEX063F51
     K14Od4C KC2015 11 17.23545 23 39 55.611-04 50 06.62         23.4 GVEX063F51
     K14Od4C  C2015 12 09.21300 23 39 36.958-04 50 46.44         22.7 GVEX063F51
     K14Od4C  C2015 12 09.22525 23 39 36.936-04 50 46.99         22.6 GVEX063F51
     K14Od4C  C2015 12 09.23755 23 39 36.967-04 50 46.30         22.5 GVEX063F51
     K14Od4C  C2015 12 09.24991 23 39 36.960-04 50 46.34         23.3 GVEX063F51
     K14Od4C  C2017 07 30.50923 23 56 48.911-03 02 14.83         22.3 GVEX063F51
     K14Od4C  C2017 07 30.53307 23 56 48.867-03 02 15.42         22.5 GVEX063F51
     K14Od4C  C2017 08 01.53329 23 56 43.877-03 02 53.84         22.5 GVEX063F51
     K14Od4C  C2017 08 01.54515 23 56 43.849-03 02 54.13         22.8 GVEX063F51
     K14Od4C  C2017 08 01.55704 23 56 43.826-03 02 54.19         23.1 GVEX063F51
     K14Od4C  C2017 08 01.56895 23 56 43.784-03 02 54.61         22.8 GVEX063F51
     K14Od4C  C2017 08 03.52437 23 56 38.641-03 03 33.71         23.1 GVEX063F51
     K14Od4C  C2017 08 03.54593 23 56 38.607-03 03 34.27         23.7 GVEX063F51
     K14Od4C  C2017 08 03.55668 23 56 38.565-03 03 34.48         22.8 GVEX063F51
     K14Od4C  C2017 08 17.47873 23 55 55.051-03 08 55.05         23.0 GVEX063F51
     K14Od4C  C2017 08 17.48978 23 55 55.031-03 08 55.18         22.3 GVEX063F51
     K14Od4C  C2017 08 17.49043 23 55 54.975-03 08 54.61         22.9 GVEX063F51
     K14Od4C  C2017 08 17.50149 23 55 54.947-03 08 54.59         23.2 GVEX063F51
     K14Od4C  C2017 08 17.51191 23 55 54.911-03 08 54.90         23.1 GVEX063F51
     K14Od4C KC2017 08 20.53329 23 55 43.990-03 10 12.52         23.7 GVEX063F51
     K14Od4C  C2017 09 14.41532 23 54 01.055-03 21 53.30         22.4 GVEX063F51
     K14Od4C  C2017 09 14.42731 23 54 01.020-03 21 53.57         22.5 GVEX063F51
     K14Od4C  C2017 09 14.43923 23 54 00.944-03 21 53.66         22.6 GVEX063F51
     K14Od4C  C2017 09 14.45116 23 54 00.894-03 21 54.09         22.3 GVEX063F51
     K14Od4C  C2017 09 17.38477 23 53 47.851-03 23 20.11         22.7 GVEX063F51
     K14Od4C  C2017 09 17.39647 23 53 47.792-03 23 20.46         22.9 GVEX063F51
     K14Od4C  C2017 09 17.40819 23 53 47.734-03 23 20.77         23.4 GVEX063F51
     K14Od4C  C2017 09 17.41994 23 53 47.696-03 23 21.00         23.4 GVEX063F51
     K14Od4C KC2017 09 22.41421 23 53 25.330-03 25 46.35         22.5 GVEX063F51
     K14Od4C  C2017 09 25.38210 23 53 12.073-03 27 11.53         22.7 GVEX063F51
     K14Od4C  C2017 09 25.39270 23 53 12.006-03 27 12.15         23.0 GVEX063F51
     K14Od4C  C2017 09 25.40332 23 53 11.977-03 27 12.27         22.5 GVEX063F51
     K14Od4C  C2017 09 25.41391 23 53 11.909-03 27 12.74         22.9 GVEX063F51
 
Observer details:
F51 Pan-STARRS 1, Haleakala.  Observers J. Bulger, K. Chambers, B. Gibson,
    T. Goggia, T. Lowe, E. Magnier, N. Primak, A. Schultz, J. Thiel,
    S. Watters, M. Willman.  Measurers S. Chastel, M. Huber, R. Jedicke,
    R. Wainscoat, R. Weryk.  1.8-m Ritchey-Chretien + CCD.
 
Orbital elements:
2014 OC394
Epoch 2019 Apr. 27.0 TT = JDT 2458600.5                 MPC
M 332.09592              (2000.0)            P               Q
n   0.00342686     Peri.  295.68202     +0.86402427     -0.50163955
a  43.5717217      Node    94.45273     +0.47588849     +0.78613382
e   0.0505381      Incl.    2.45235     +0.16429308     +0.36104207
P 288              H    6.7           G   0.15           U   2
Residuals in seconds of arc
100831 F51  0.1+  0.1-    150909 F51  0.1-  0.1+    170803 F51  0.1-  0.1+
100915 F51  0.0   0.1+    150909 F51  0.2-  0.0     170817 F51  0.3+  0.8-
100915 F51  0.2-  0.1-    150909 F51  0.0   0.0     170817 F51  0.6+  0.7-
100915 F51  0.1+  0.0     150910 F51  0.0   0.1-    170817 F51  0.2-  0.1-
110921 F51  0.0   0.1-    150912 F51  0.0   0.1+    170817 F51  0.0   0.2+
110921 F51  0.1+  0.1+    150912 F51  0.0   0.3+    170817 F51  0.0   0.2+
110921 F51  0.1+  0.0     150912 F51  0.0   0.0     170820 F51  0.2-  0.1-
110921 F51  0.1+  0.3-    150912 F51  0.0   0.1+    170914 F51  0.1-  0.2-
140728 F51  0.0   0.1-    151102 F51  0.0   0.2+    170914 F51  0.1+  0.1-
140728 F51  0.1+  0.1-    151117 F51  0.1+  0.5+    170914 F51  0.2-  0.2+
140728 F51  0.2+  0.3+    151209 F51  0.0   0.0     170914 F51  0.1-  0.1+
140803 F51  0.0   0.1+    151209 F51  0.3-  0.6-    170917 F51  0.1+  0.1-
140803 F51  0.1+  0.2+    151209 F51  0.1+  0.1+    170917 F51  0.1+  0.1-
140803 F51  0.1+  0.1+    151209 F51  0.0   0.0     170917 F51  0.0   0.1-
140820 F51  0.1-  0.0     170730 F51  0.1-  0.1+    170917 F51  0.2+  0.0
140820 F51  0.1-  0.1+    170730 F51  0.1+  0.1-    170922 F51  0.0   0.0
140820 F51  0.1-  0.0     170801 F51  0.1-  0.1+    170925 F51  0.2+  0.3+
140820 F51  0.2-  0.0     170801 F51  0.1-  0.0     170925 F51  0.1-  0.0
140919 F51  0.1-  0.1-    170801 F51  0.0   0.2+    170925 F51  0.2+  0.1+
140919 F51  0.1-  0.0     170801 F51  0.1-  0.0     170925 F51  0.1-  0.0
140919 F51  0.1-  0.2-    170803 F51  0.3-  0.2+
150909 F51  0.1+  0.2+    170803 F51  0.1+  0.1+

Ephemeris:
2014 OC394               a,e,i = 43.57, 0.05, 2                  q = 41.370
Date    TT    R. A. (2000) Decl.     Delta      r     Elong.  Phase     V
2018 11 10    23 55 27.8 -03 11 36  41.0150 41.6633   130.4     1.0    23.0
...
2018 11 25    23 54 56.7 -03 14 08  41.2335 41.6623   115.1     1.2    23.1
...
2018 12 03    23 54 47.6 -03 14 36  41.3628 41.6617   107.0     1.3    23.1
...
2018 12 09    23 54 44.6 -03 14 33  41.4637 41.6613   100.9     1.3    23.1
2018 12 10    23 54 44.4 -03 14 30  41.4808 41.6612    99.9     1.3    23.1
2018 12 11    23 54 44.3 -03 14 27  41.4979 41.6612    98.9     1.3    23.1
...
2018 12 17    23 54 45.6 -03 13 55  41.6013 41.6608    92.8     1.4    23.1
...
2018 12 25    23 54 52.5 -03 12 38  41.7398 41.6602    84.7     1.3    23.1
...
2019 01 09    23 55 21.1 -03 08 35  41.9926 41.6592    69.5     1.3    23.1

A. U. Tomatic                (C) Copyright 2018 MPC           M.P.E.C. 2018-X63



More information about the Iaude mailing list